Regional Weather Roundup
Issued by NWS

Home | Current Version | Previous Version | Graphics & Text | Print | Product List | Glossary On
Versions: 1 2 3 4 5 6 7 8 9 10 11 12 13 14 15 16 17 18 19 20 21 22 23 24 25 26 27 28 29 30 31 32 33 34 35 36 37 38 39 40 41 42 43 44 45 46 47 48 49 50
000
ASUS43 KLMK 191102
RWRKY
KENTUCKY REGIONAL WEATHER ROUNDUP
NATIONAL WEATHER SERVICE LOUISVILLE KY
600 AM EST FRI DEC 19 2014

NOTE "FAIR" INDICATES FEW OR NO CLOUDS BELOW 12,000 FEET
WITH NO SIGNIFICANT WEATHER AND/OR OBSTRUCTIONS TO VISIBILITY.

KYZ001>023-026-027-061>063-070>075-191200-
WESTERN AND SOUTH CENTRAL KENTUCKY

CITY           SKY/WX    TMP DP  RH WIND       PRES   REMARKS
PADUCAH        CLOUDY    33  28  81 NE7       30.24F WCI  27
HENDERSON      CLOUDY    30  23  74 N8        30.27F WCI  23
OWENSBORO      CLOUDY    31  26  81 MISG      30.27F
HOPKINSVILLE   CLOUDY    33  28  82 NE5       30.26R WCI  28
BOWLING GREEN  CLEAR     31  26  82 CALM      30.25S
GLASGOW        NOT AVBL
$$

KYZ024-025-028>034-038-045-046-053-191200-
NORTH CENTRAL KENTUCKY

CITY           SKY/WX    TMP DP  RH WIND       PRES   REMARKS
LOUISVILLE/SDF PTCLDY    30  23  75 N6        30.28R WCI  24
LOUISVILLE/LOU CLEAR     29  22  75 N3        30.28R
FORT KNOX      CLOUDY    29  25  84 N3        30.24R
$$

KYZ035>037-039>044-047>052-055>060-089>105-191200-
NORTHEAST KENTUCKY

CITY           SKY/WX    TMP DP  RH WIND       PRES   REMARKS
LEXINGTON      CLOUDY    28  22  78 N6        30.24R WCI  22
COVINGTON      CLOUDY    27  19  72 NW6       30.25R WCI  20
FRANKFORT      PTCLDY    27  22  81 CALM      30.25R
$$

KYZ054-064>069-076>088-106>120-191200-
SOUTHEAST KENTUCKY

CITY           SKY/WX    TMP DP  RH WIND       PRES   REMARKS
JACKSON        CLOUDY    30  24  78 CALM      30.20R
LONDON         CLOUDY    33  25  72 NE5       30.20S WCI  29
SOMERSET       NOT AVBL
MIDDLESBORO    NOT AVBL
MONTICELLO     CLOUDY    33  29  86 CALM      30.24S
$$



USA.gov is the U.S. government's official web portal to all federal, state and local government web resources and services.